Regional Weather Roundup
Issued by NWS

Home | Current Version | Previous Version | Graphics & Text | Print | Product List | Glossary On
Versions: 1 2 3 4 5 6 7 8 9 10 11 12 13 14 15 16 17 18 19 20 21 22 23 24 25 26 27 28 29 30 31 32 33 34 35 36 37 38 39 40 41 42 43 44 45 46 47 48 49 50
000
ASUS45 KABQ 180610
RWRNM
WEATHER ROUNDUP FOR NEW MEXICO
NATIONAL WEATHER SERVICE ALBUQUERQUE NM
1100 PM MST WED DEC 17 2014

NOTE: "FAIR" MEANS FEW OR NO CLOUDS BELOW 12,000 FEET AGL WITH NO
       SIGNIFICANT WEATHER OR OBSTRUCTIONS TO VISION.

      THIS PRODUCT IS RELEASED AS TWO VERSIONS.  ONE VERSION NEAR
      THE TOP OF THE HOUR CONTAINING PRELIMINARY DATA FROM ALBUQUERQUE
      AND OTHER STATIONS.  A FINAL VERSION WITH ADDITIONAL DATA IS
      ISSUED ABOUT 10 MINUTES AFTER THE HOUR.

NMZ501-503-504-510>518-180700-
NORTHWEST PLATEAU/NORTHCENTRAL MOUNTAINS

CITY           SKY/WX    TMP DP  RH WIND       PRES   REMARKS
FARMINGTON     CLOUDY    34  33  96 SW5       30.08S WCI  30
6HR MIN TEMP:  34; 6HR MAX TEMP:  36; 6HR PCP:  0.02;

LOS ALAMOS     PTCLDY    29  29 100 E3        30.06S FOG
SANTA FE       MOCLDY    31  30  96 CALM      30.06S FOG
6HR MIN TEMP:  31; 6HR MAX TEMP:  34;

TAOS           CLOUDY    30  28  93 SW10      30.06R WCI  21
ANGEL FIRE     LGT SNOW  29  25  84 W12       30.03R WCI  20

$$
NMZ402-403-502-505>509-180700-
WESTCENTRAL MOUNTAINS/SOUTHWEST MOUNTAINS

CITY           SKY/WX    TMP DP  RH WIND       PRES   REMARKS
GALLUP         CLOUDY    32  29  88 W6        30.11R WCI  26
6HR MIN TEMP:  29; 6HR MAX TEMP:  32;

GRANTS         CLOUDY    31  28  90 NW5       30.12S WCI  26
SILVER CITY    MOCLDY    36  34  93 NW9       30.17R WCI  29

$$
NMZ407-409-411-412-180700-
SOUTHERN DESERTS

CITY           SKY/WX    TMP DP  RH WIND       PRES   REMARKS
LORDSBURG      CLOUDY    41  37  87 NW7       30.16F
DEMING         MOCLDY    42  37  82 W10       30.14S
6HR MIN TEMP:  38; 6HR MAX TEMP:  47; 6HR PCP: TRACE;

LAS CRUCES     PTCLDY    36  32  85 SW5       30.15S WCI  32
HOLLOMAN AFB   MOCLDY    47  32  55 S5        30.11R
ALAMOGORDO     CLOUDY    46  32  57 SE8       30.13R
T OR C         PTCLDY    39  27  62 CALM      30.11R
6HR MIN TEMP:  37; 6HR MAX TEMP:  50;


$$
NMZ519>523-180700-
CENTRAL VALLEYS/CENTRAL HIGHLANDS

CITY           SKY/WX    TMP DP  RH WIND       PRES   REMARKS
ALBUQUERQUE    PTCLDY    36  32  85 S6        30.12R WCI  31
6HR MIN TEMP:  35; 6HR MAX TEMP:  40; 6HR PCP: TRACE;

DOUBLE EAGLE   PTCLDY    32  29  92 SW7       30.11R WCI  25
MORIARTY ARPT  FAIR      32  29  87 W10       30.09R WCI  24
6HR MIN TEMP:  32; 6HR MAX TEMP:  37;

CLINES CORNERS PTCLDY    29  27  92 W24       30.02R WCI  15
6HR MIN TEMP:  29; 6HR MAX TEMP:  34; 6HR PCP:  0.05;

BELEN          FAIR      32  30  93 SW9       30.12R WCI  24
6HR MIN TEMP:  32; 6HR MAX TEMP:  39;

SOCORRO        FAIR      38  30  72 N6        30.11S WCI  33
6HR MIN TEMP:  37; 6HR MAX TEMP:  50;


$$
NMZ524>526-539-540-180700-
SOUTHCENTRAL MOUNTAINS

CITY           SKY/WX    TMP DP  RH WIND       PRES   REMARKS
RUIDOSO        PTCLDY    34  27  75 SW14      30.12S WCI  24

$$
NMZ527>531-180700-
NORTHEAST HIGHLANDS/NORTHEAST PLAINS

CITY           SKY/WX    TMP DP  RH WIND       PRES   REMARKS
LAS VEGAS      MOCLDY    28  23  81 SW12      30.00S WCI  18
6HR MIN TEMP:  27; 6HR MAX TEMP:  36;

RATON          CLOUDY    25  20  81 NE7       29.98R WCI  17
6HR MIN TEMP:  25; 6HR MAX TEMP:  37;

CLAYTON        PTCLDY    28  25  88 NW7       29.98R WCI  21
6HR MIN TEMP:  27; 6HR MAX TEMP:  42; 6HR PCP:  0.02;


$$
NMZ532>537-180700-
EASTCENTRAL PLAINS

CITY           SKY/WX    TMP DP  RH WIND       PRES   REMARKS
TUCUMCARI      CLEAR     42  32  67 W10       29.98R
6HR MIN TEMP:  42; 6HR MAX TEMP:  49;

CANNON AFB     PTCLDY    41  33  73 W13       30.01S
6HR MIN TEMP:  37; 6HR MAX TEMP:  50;

CLOVIS AIRPORT PTCLDY    36  27  69 SW10      30.01S WCI  28

$$
NMZ028-029-538-180700-
SOUTHEAST PLAINS

CITY           SKY/WX    TMP DP  RH WIND       PRES   REMARKS
ROSWELL        CLEAR     43  32  65 NW7       30.06S
6HR MIN TEMP:  39; 6HR MAX TEMP:  56;

ARTESIA        CLEAR     43  32  65 N8        30.07R
CARLSBAD       CLEAR     50  32  50 W8        30.06S
6HR MIN TEMP:  45; 6HR MAX TEMP:  59;

HOBBS          CLEAR     45  30  57 SW9       30.07S


$$


USA.gov is the U.S. government's official web portal to all federal, state and local government web resources and services.